SL-16 DEB, 22337

Orbit data source: Space-Track

SL-16 DEB, 22337 is space debris in LEO originally from a launch on Fri, 25 Dec 1992 UTC launched from the Tyuratam Missile And Space Complex (TTMTR). Debris objects in space refer to the collection of defunct objects orbiting the Earth. Examples of debris include non-operational satellites, rocket bodies, and fragments generated from explosions, collisions, or faulty payload assembly.

Loading next visibility...
Identifier
22337, 1992-093AA
Orbit
LEO
Country
Flag of CISCIS
Related business
Manufacturer
Unknown
Mission
Spacecraft
Bus & Motor
Unknown
Mass
Unknown
Launch date (UTC)
1992-12-25 (33 years ago)
Launch vehicle
Unknown
Launch site
Tyuratam Missile And Space Complex (TTMTR)
Object type
Payload
Rocket body
Debris
Shape & HBR
Unknown shape, 0.8 m
Radar Cross Section
Medium (>0.1 m² and <1 m²)

Expand to show TLE details & history
Last TLE update: 8 hours ago

TLE from 8 hours ago
0 SL-16 DEB
1 22337U 92093AA  26126.93702925  .00000022  00000-0  53026-4 0  9998
2 22337  71.2918  39.6836 0149378 313.7322  45.1494 13.84570310683933
Epoch: 2026-05-06T22:29Z
TLE epoch observation values (Epoch: 2026-05-06T22:29:19.327Z)
Latitude
-0.00008°
Longitude
-162.43732°
Altitude
873.753 km
Speed
7.454 km/s
True Right ascension
02h 38m 44s
True Declination
0° 00' 00"
Sunlit
Object was in daylight at epoch
Visualization orbit readout
Latitude
Unknown
Longitude
Unknown
Altitude
Unknown
Speed
Unknown
Apparent Right ascension
Unknown
Apparent Declination
Unknown
Sunlit
N/A
Visualization observer readout
Local Sidereal Time
14:36:24
Azimuth
Unknown
Elevation
Unknown
Doppler factor
Unknown
Orbital elements
Apogee altitude
1,055.048 km
Perigee altitude
836.246 km
Semi-major axis
7,323.784 km
Eccentricity
0.01494
Inclination
71.2918°
RAAN
39.6836°
Arg. of periapsis
313.7322°
True anomaly
46.37903°
Mean anomaly
45.1494°
Eccentric anomaly
45.76259°
Mean motion
3.4629 °/min
Orbital period
103.96 mins
BSTAR
0.000053026
Loading maneuver chart data...
Computing Atmospheric mass density...
Loading historical data...
Loading historical data...
Loading historical data...
Loading historical data...
Loading historical data...
Loading historical data...
Loading historical data...

Documentation

Showing up to 5 results
|